Time,TemperatureF,DewpointF,PressureIn,WindDirection,WindDirectionDegrees,WindSpeedMPH,WindSpeedGustMPH,Humidity,HourlyPrecipIn,Conditions,Clouds,dailyrainin,SolarRadiationWatts/m^2,SoftwareType,DateUTC
2014-10-21 00:09:00,49.2,24.0,29.71,North,0,2.0,2.0,37,0.00,,,0.00,0,WeatherCatV1.24B11,2014-10-21 06:09:00,
2014-10-21 00:19:00,49.0,25.7,29.70,North,0,1.0,3.0,40,0.00,,,0.00,0,WeatherCatV1.24B11,2014-10-21 06:19:00,
2014-10-21 00:29:00,48.8,25.0,29.70,North,0,3.0,4.0,39,0.00,,,0.00,0,WeatherCatV1.24B11,2014-10-21 06:29:00,
2014-10-21 00:39:00,49.1,25.2,29.70,North,0,1.0,4.0,39,0.00,,,0.00,0,WeatherCatV1.24B11,2014-10-21 06:39:00,
2014-10-21 00:49:00,48.9,24.4,29.70,North,0,3.0,3.0,38,0.00,,,0.00,0,WeatherCatV1.24B11,2014-10-21 06:49:00,
2014-10-21 00:59:00,48.1,25.5,29.70,North,0,1.0,1.0,41,0.00,,,0.00,0,WeatherCatV1.24B11,2014-10-21 06:59:00,
2014-10-21 01:09:00,48.0,25.4,29.70,North,0,2.0,3.0,41,0.00,,,0.00,0,WeatherCatV1.24B11,2014-10-21 07:09:00,
2014-10-21 01:19:00,48.1,25.5,29.69,North,0,2.0,3.0,41,0.00,,,0.00,0,WeatherCatV1.24B11,2014-10-21 07:19:00,
2014-10-21 01:29:00,48.5,26.5,29.69,North,0,0.0,2.0,42,0.00,,,0.00,0,WeatherCatV1.24B11,2014-10-21 07:29:00,
2014-10-21 01:39:00,48.2,26.2,29.69,North,0,1.0,3.0,42,0.00,,,0.00,0,WeatherCatV1.24B11,2014-10-21 07:39:00,
2014-10-21 01:49:00,49.0,28.0,29.69,North,0,2.0,3.0,44,0.00,,,0.00,0,WeatherCatV1.24B11,2014-10-21 07:49:00,
2014-10-21 01:59:00,48.8,26.7,29.70,North,0,1.0,3.0,42,0.00,,,0.00,0,WeatherCatV1.24B11,2014-10-21 07:59:00,
2014-10-21 02:09:00,49.0,27.5,29.69,North,0,2.0,4.0,43,0.00,,,0.00,0,WeatherCatV1.24B11,2014-10-21 08:09:00,
2014-10-21 02:19:00,49.1,27.0,29.69,North,0,2.0,3.0,42,0.00,,,0.00,0,WeatherCatV1.24B11,2014-10-21 08:19:00,
2014-10-21 02:29:00,48.6,26.6,29.69,North,0,1.0,1.0,42,0.00,,,0.00,0,WeatherCatV1.24B11,2014-10-21 08:29:00,
2014-10-21 02:39:00,48.6,27.7,29.69,North,0,2.0,3.0,44,0.00,,,0.00,0,WeatherCatV1.24B11,2014-10-21 08:39:00,
2014-10-21 02:49:00,48.3,26.9,29.68,North,0,3.0,3.0,43,0.00,,,0.00,0,WeatherCatV1.24B11,2014-10-21 08:49:00,
2014-10-21 02:59:00,48.0,28.2,29.68,North,0,1.0,4.0,46,0.00,,,0.00,0,WeatherCatV1.24B11,2014-10-21 08:59:00,
2014-10-21 03:09:00,48.2,28.9,29.68,North,0,1.0,3.0,47,0.00,,,0.00,0,WeatherCatV1.24B11,2014-10-21 09:09:00,
2014-10-21 03:19:00,48.9,29.0,29.68,North,0,1.0,3.0,46,0.00,,,0.00,0,WeatherCatV1.24B11,2014-10-21 09:19:00,
2014-10-21 03:29:00,48.8,30.0,29.67,North,0,0.0,1.0,48,0.00,,,0.00,0,WeatherCatV1.24B11,2014-10-21 09:29:00,
2014-10-21 03:39:00,49.7,29.2,29.67,North,0,2.0,3.0,45,0.00,,,0.00,0,WeatherCatV1.24B11,2014-10-21 09:39:00,
2014-10-21 03:49:00,51.6,30.4,29.67,North,0,2.0,3.0,44,0.00,,,0.00,0,WeatherCatV1.24B11,2014-10-21 09:49:00,
2014-10-21 03:59:00,51.3,30.1,29.67,North,0,1.0,1.0,44,0.00,,,0.00,0,WeatherCatV1.24B11,2014-10-21 09:59:00,
2014-10-21 04:09:00,51.6,29.3,29.67,North,0,2.0,4.0,42,0.00,,,0.00,0,WeatherCatV1.24B11,2014-10-21 10:09:00,
2014-10-21 04:19:00,55.8,29.9,29.66,North,0,3.0,4.0,37,0.00,,,0.00,0,WeatherCatV1.24B11,2014-10-21 10:19:00,
2014-10-21 04:29:00,56.7,30.0,29.66,North,0,3.0,6.0,36,0.00,,,0.00,0,WeatherCatV1.24B11,2014-10-21 10:29:00,
2014-10-21 04:39:00,58.0,29.8,29.66,North,0,3.0,8.0,34,0.00,,,0.00,0,WeatherCatV1.24B11,2014-10-21 10:39:00,
2014-10-21 04:49:00,58.1,29.9,29.66,North,0,3.0,5.0,34,0.00,,,0.00,0,WeatherCatV1.24B11,2014-10-21 10:49:00,
2014-10-21 04:59:00,57.6,29.4,29.66,North,0,2.0,4.0,34,0.00,,,0.00,0,WeatherCatV1.24B11,2014-10-21 10:59:00,
2014-10-21 05:09:00,56.4,31.1,29.65,North,0,3.0,3.0,38,0.00,,,0.00,0,WeatherCatV1.24B11,2014-10-21 11:09:00,
2014-10-21 05:19:00,56.8,30.8,29.65,North,0,3.0,5.0,37,0.00,,,0.00,0,WeatherCatV1.24B11,2014-10-21 11:19:00,
2014-10-21 05:29:00,58.0,30.5,29.65,North,0,3.0,3.0,35,0.00,,,0.00,0,WeatherCatV1.24B11,2014-10-21 11:29:00,
2014-10-21 05:39:00,57.9,30.4,29.65,North,0,2.0,4.0,35,0.00,,,0.00,0,WeatherCatV1.24B11,2014-10-21 11:39:00,
2014-10-21 05:49:00,58.4,30.1,29.65,North,0,3.0,5.0,34,0.00,,,0.00,0,WeatherCatV1.24B11,2014-10-21 11:49:00,
2014-10-21 05:59:00,59.3,30.2,29.65,North,0,3.0,4.0,33,0.00,,,0.00,0,WeatherCatV1.24B11,2014-10-21 11:59:00,
2014-10-21 06:09:00,58.4,32.2,29.64,North,0,2.0,4.0,37,0.00,,,0.00,0,WeatherCatV1.24B11,2014-10-21 12:09:00,
2014-10-21 06:19:00,56.3,31.0,29.64,North,0,2.0,5.0,38,0.00,,,0.00,0,WeatherCatV1.24B11,2014-10-21 12:19:00,
2014-10-21 06:29:00,55.3,30.1,29.64,North,0,2.0,4.0,38,0.00,,,0.00,0,WeatherCatV1.24B11,2014-10-21 12:29:00,
2014-10-21 06:39:00,55.3,31.4,29.64,North,0,0.0,2.0,40,0.00,,,0.00,0,WeatherCatV1.24B11,2014-10-21 12:39:00,
2014-10-21 06:49:00,53.6,31.6,29.64,North,0,0.0,2.0,43,0.00,,,0.00,0,WeatherCatV1.24B11,2014-10-21 12:49:00,
2014-10-21 06:59:00,52.6,30.2,29.64,North,0,0.0,1.0,42,0.00,,,0.00,0,WeatherCatV1.24B11,2014-10-21 12:59:00,
2014-10-21 07:09:00,52.6,30.8,29.64,North,0,1.0,3.0,43,0.00,,,0.00,0,WeatherCatV1.24B11,2014-10-21 13:09:00,
2014-10-21 07:19:00,54.2,29.8,29.63,North,0,2.0,7.0,39,0.00,,,0.00,0,WeatherCatV1.24B11,2014-10-21 13:19:00,
2014-10-21 07:29:00,56.6,30.0,29.63,North,0,2.0,6.0,36,0.00,,,0.00,0,WeatherCatV1.24B11,2014-10-21 13:29:00,
2014-10-21 07:39:00,57.9,29.7,29.63,North,0,2.0,5.0,34,0.00,,,0.00,9,WeatherCatV1.24B11,2014-10-21 13:39:00,
2014-10-21 07:49:00,57.7,30.2,29.63,North,0,1.0,3.0,35,0.00,,,0.00,18,WeatherCatV1.24B11,2014-10-21 13:49:00,
2014-10-21 07:59:00,57.0,30.3,29.63,North,0,2.0,4.0,36,0.00,,,0.00,46,WeatherCatV1.24B11,2014-10-21 13:59:00,
2014-10-21 08:09:00,56.6,30.6,29.63,North,0,3.0,5.0,37,0.00,,,0.00,62,WeatherCatV1.24B11,2014-10-21 14:09:00,
2014-10-21 08:19:00,57.2,31.2,29.62,North,0,3.0,7.0,37,0.00,,,0.00,118,WeatherCatV1.24B11,2014-10-21 14:19:00,
2014-10-21 08:29:00,57.7,30.9,29.62,North,0,3.0,8.0,36,0.00,,,0.00,155,WeatherCatV1.24B11,2014-10-21 14:29:00,
2014-10-21 08:39:00,58.3,31.5,29.62,North,0,2.0,4.0,36,0.00,,,0.00,193,WeatherCatV1.24B11,2014-10-21 14:39:00,
2014-10-21 08:49:00,59.2,31.6,29.61,North,0,3.0,7.0,35,0.00,,,0.00,232,WeatherCatV1.24B11,2014-10-21 14:49:00,
2014-10-21 08:59:00,60.4,33.3,29.61,North,0,2.0,2.0,36,0.00,,,0.00,269,WeatherCatV1.24B11,2014-10-21 14:59:00,
2014-10-21 09:09:00,61.7,33.8,29.60,North,0,0.0,3.0,35,0.00,,,0.00,304,WeatherCatV1.24B11,2014-10-21 15:09:00,
2014-10-21 09:19:00,63.1,33.5,29.60,North,0,3.0,4.0,33,0.00,,,0.00,338,WeatherCatV1.24B11,2014-10-21 15:19:00,
2014-10-21 09:29:00,63.9,33.5,29.60,North,0,1.0,4.0,32,0.00,,,0.00,362,WeatherCatV1.24B11,2014-10-21 15:29:00,
2014-10-21 09:39:00,65.0,37.4,29.60,North,0,1.0,2.0,36,0.00,,,0.00,388,WeatherCatV1.24B11,2014-10-21 15:39:00,
2014-10-21 09:49:00,66.6,35.0,29.60,North,0,2.0,4.0,31,0.00,,,0.00,413,WeatherCatV1.24B11,2014-10-21 15:49:00,
2014-10-21 09:59:00,67.5,35.8,29.60,North,0,1.0,1.0,31,0.00,,,0.00,436,WeatherCatV1.24B11,2014-10-21 15:59:00,
2014-10-21 10:09:00,67.9,35.3,29.59,North,0,2.0,3.0,30,0.00,,,0.00,462,WeatherCatV1.24B11,2014-10-21 16:09:00,
2014-10-21 10:19:00,67.5,35.8,29.59,North,0,1.0,2.0,31,0.00,,,0.00,485,WeatherCatV1.24B11,2014-10-21 16:19:00,
2014-10-21 10:29:00,68.9,37.8,29.59,North,0,1.0,3.0,32,0.00,,,0.00,417,WeatherCatV1.24B11,2014-10-21 16:29:00,
2014-10-21 10:39:00,69.6,33.2,29.58,North,0,3.0,4.0,26,0.00,,,0.00,504,WeatherCatV1.24B11,2014-10-21 16:39:00,
2014-10-21 10:49:00,70.1,34.6,29.58,North,0,2.0,2.0,27,0.00,,,0.00,543,WeatherCatV1.24B11,2014-10-21 16:49:00,
2014-10-21 10:59:00,71.7,34.0,29.58,North,0,3.0,4.0,25,0.00,,,0.00,547,WeatherCatV1.24B11,2014-10-21 16:59:00,
2014-10-21 11:09:00,71.9,33.1,29.57,North,0,2.0,3.0,24,0.00,,,0.00,165,WeatherCatV1.24B11,2014-10-21 17:09:00,
2014-10-21 11:19:00,72.2,32.3,29.58,North,0,2.0,3.0,23,0.00,,,0.00,91,WeatherCatV1.24B11,2014-10-21 17:19:00,
2014-10-21 11:29:00,72.1,32.2,29.57,NE,34,2.0,2.0,23,0.00,,,0.00,610,WeatherCatV1.24B11,2014-10-21 17:29:00,
2014-10-21 11:39:00,72.9,31.8,29.57,North,0,1.0,3.0,22,0.00,,,0.00,615,WeatherCatV1.24B11,2014-10-21 17:39:00,
2014-10-21 11:49:00,73.5,34.5,29.56,North,0,1.0,2.0,24,0.00,,,0.00,628,WeatherCatV1.24B11,2014-10-21 17:49:00,
2014-10-21 11:59:00,72.4,32.5,29.56,North,0,2.0,5.0,23,0.00,,,0.00,649,WeatherCatV1.24B11,2014-10-21 17:59:00,
2014-10-21 12:09:00,72.2,33.4,29.56,North,0,3.0,5.0,24,0.00,,,0.00,684,WeatherCatV1.24B11,2014-10-21 18:09:00,
2014-10-21 12:19:00,71.7,33.0,29.55,North,0,1.0,2.0,24,0.00,,,0.00,220,WeatherCatV1.24B11,2014-10-21 18:19:00,
2014-10-21 12:29:00,72.0,33.2,29.55,ENE,69,0.0,4.0,24,0.00,,,0.00,631,WeatherCatV1.24B11,2014-10-21 18:29:00,
2014-10-21 12:39:00,71.9,34.2,29.54,North,0,4.0,5.0,25,0.00,,,0.00,202,WeatherCatV1.24B11,2014-10-21 18:39:00,
2014-10-21 12:49:00,70.7,35.1,29.54,ENE,69,0.0,2.0,27,0.00,,,0.00,207,WeatherCatV1.24B11,2014-10-21 18:49:00,
2014-10-21 12:59:00,70.3,34.7,29.53,ENE,71,1.0,2.0,27,0.00,,,0.00,227,WeatherCatV1.24B11,2014-10-21 18:59:00,
2014-10-21 13:09:00,70.9,35.2,29.52,ENE,70,0.0,1.0,27,0.00,,,0.00,476,WeatherCatV1.24B11,2014-10-21 19:09:00,
2014-10-21 13:19:00,73.3,34.3,29.52,North,0,3.0,3.0,24,0.00,,,0.00,747,WeatherCatV1.24B11,2014-10-21 19:19:00,
2014-10-21 13:29:00,73.1,35.2,29.52,North,0,2.0,3.0,25,0.00,,,0.00,773,WeatherCatV1.24B11,2014-10-21 19:29:00,
2014-10-21 13:39:00,72.7,33.8,29.52,North,0,3.0,3.0,24,0.00,,,0.00,779,WeatherCatV1.24B11,2014-10-21 19:39:00,
2014-10-21 13:49:00,73.7,34.7,29.52,North,0,0.0,1.0,24,0.00,,,0.00,680,WeatherCatV1.24B11,2014-10-21 19:49:00,
2014-10-21 13:59:00,72.7,33.8,29.52,North,0,2.0,3.0,24,0.00,,,0.00,155,WeatherCatV1.24B11,2014-10-21 19:59:00,
2014-10-21 14:09:00,71.4,33.7,29.52,North,0,2.0,2.0,25,0.00,,,0.00,223,WeatherCatV1.24B11,2014-10-21 20:09:00,
2014-10-21 14:19:00,70.0,35.4,29.51,North,0,3.0,4.0,28,0.00,,,0.00,236,WeatherCatV1.24B11,2014-10-21 20:19:00,